Location: Newark
(49.9828°N, 3.1606°E)
Time: 23:42:04
(UTC+00:00)

Envisat - Pass Details

Date: 30 January 2020
Orbit: 764 x 766 km, 98.1° (Epoch: 19 February)

Event Time Altitude Azimuth Distance (km) Brightness Sun altitude
Rises 17:43:00 0° 173° (S) 3,221 6.3 -10.7°
Reaches altitude 10° 17:45:20 10° 177° (S) 2,299 5.6 -11.0°
Maximum altitude 17:50:21 63° 258° (WSW) 855 3.6 -11.8°
Drops below altitude 10° 17:55:25 10° 340° (NNW) 2,315 5.6 -12.6°
Sets 17:57:46 0° 344° (NNW) 3,246 6.3 -13.0°
